W9PPN Weather Reports


Display with metric or nautical units.
time (UTC)temp
F
wind
direction
speed
MPH
gust
MPH
rain 1hr
in
rain 24hr
in
rain mn
in
humidity
%
barometer
mb
20260510115648 37 310 3.0 6.0 0.00 0.00 0.00 75 1011.7
20260510115142 37 310 4.0 7.0 0.00 0.00 0.00 75 1011.7
20260510114637 37 310 4.0 7.0 0.00 0.00 0.00 74 1011.7
20260510114130 37 308 4.0 7.0 0.00 0.00 0.00 74 1011.7
20260510113625 37 308 4.0 7.0 0.00 0.00 0.00 74 1011.7
20260510113116 37 307 3.0 6.0 0.00 0.00 0.00 73 1011.7
20260510112609 37 307 3.0 10.0 0.00 0.00 0.00 73 1011.5
20260510112100 37 307 2.0 10.0 0.00 0.00 0.00 73 1011.5
20260510111554 37 307 4.0 10.0 0.00 0.00 0.00 72 1011.5
20260510111046 37 307 5.0 10.0 0.00 0.00 0.00 72 1011.4
20260510110536 38 326 5.0 9.0 0.00 0.00 0.00 72 1011.4
20260510110029 38 326 5.0 9.0 0.00 0.00 0.00 71 1011.4
20260510105517 38 310 5.0 8.0 0.00 0.00 0.00 71 1011.1
20260510105227 38 320 5.0 9.0 0.00 0.00 0.00 71 1011.1
20260510104451 38 326 5.0 9.0 0.00 0.00 0.00 71 1010.7
20260510103942 38 336 4.0 9.0 0.00 0.00 0.00 71 1010.7
20260510103427 38 337 4.0 9.0 0.00 0.00 0.00 71 1010.7
20260510102917 37 329 4.0 8.0 0.00 0.00 0.00 71 1010.6
20260510102405 37 321 4.0 8.0 0.00 0.00 0.00 71 1010.6
20260510101851 37 320 3.0 6.0 0.00 0.00 0.00 70 1010.6
20260510101557 37 320 3.0 5.0 0.00 0.00 0.00 71 1010.4
20260510100829 37 320 3.0 5.0 0.00 0.00 0.00 71 1010.4
20260510100537 37 320 3.0 5.0 0.00 0.00 0.00 71 1010.4
20260510095804 37 320 2.0 5.0 0.00 0.00 0.00 74 1010.1
20260510095251 37 320 2.0 5.0 0.00 0.00 0.00 71 1010.1
20260510094739 37 320 2.0 5.0 0.00 0.00 0.00 71 1010.1
20260510094446 37 320 3.0 5.0 0.00 0.00 0.00 71 1010.0
20260510093716 37 320 3.0 4.0 0.00 0.00 0.00 71 1010.0
20260510093204 37 320 3.0 5.0 0.00 0.00 0.00 70 1010.0
20260510092652 37 320 2.0 5.0 0.00 0.00 0.00 70 1009.7
20260510092141 37 320 2.0 5.0 0.00 0.00 0.00 70 1009.7
20260510091635 37 320 3.0 5.0 0.00 0.00 0.00 70 1009.7
20260510091128 38 320 3.0 5.0 0.00 0.00 0.00 69 1009.5
20260510090622 38 320 2.0 5.0 0.00 0.00 0.00 69 1009.5
20260510090116 38 320 3.0 5.0 0.00 0.00 0.00 69 1009.5
20260510085834 37 320 3.0 5.0 0.00 0.00 0.00 69 1009.5
20260510085103 37 320 3.0 5.0 0.00 0.00 0.00 69 1009.5
20260510084559 38 320 3.0 5.0 0.00 0.00 0.00 69 1009.5
20260510084052 38 320 2.0 5.0 0.00 0.00 0.00 68 1009.5
20260510083547 38 320 2.0 5.0 0.00 0.00 0.00 68 1009.5
20260510083039 38 320 3.0 5.0 0.00 0.00 0.00 68 1009.5
20260510082534 38 320 3.0 5.0 0.00 0.00 0.00 68 1009.2
20260510082027 38 320 3.0 5.0 0.00 0.00 0.00 68 1009.2
20260510081521 38 320 3.0 5.0 0.00 0.00 0.00 67 1009.2
20260510081015 38 320 3.0 4.0 0.00 0.00 0.00 67 1009.1
20260510080507 38 320 3.0 5.0 0.00 0.00 0.00 67 1009.1
20260510075959 39 320 3.0 5.0 0.00 0.00 0.00 67 1009.1
20260510075451 39 320 3.0 5.0 0.00 0.00 0.00 66 1009.1
20260510074945 39 320 3.0 5.0 0.00 0.00 0.00 66 1009.1
20260510074441 38 320 2.0 4.0 0.00 0.00 0.00 67 1009.0
20260510074158 38 320 2.0 4.0 0.00 0.00 0.00 67 1009.0
20260510073428 38 320 2.0 4.0 0.00 0.00 0.00 66 1009.0
20260510072922 38 320 2.0 4.0 0.00 0.00 0.00 66 1009.0
20260510072417 38 320 2.0 4.0 0.00 0.00 0.00 66 1009.0
20260510071910 38 320 3.0 4.0 0.00 0.00 0.00 66 1009.0
20260510071403 38 320 2.0 4.0 0.00 0.00 0.00 66 1009.0
20260510070857 38 320 1.0 4.0 0.00 0.00 0.00 67 1009.0
20260510070346 38 320 1.0 4.0 0.00 0.00 0.00 67 1009.0
20260510065840 38 320 1.0 3.0 0.00 0.00 0.00 67 1008.9
20260510065556 38 320 1.0 3.0 0.00 0.00 0.00 67 1008.9
20260510065046 38 320 1.0 3.0 0.00 0.00 0.00 66 1008.9
20260510064324 38 320 1.0 3.0 0.00 0.00 0.00 65 1009.0
20260510063821 38 320 0.0 2.0 0.00 0.00 0.00 64 1009.0
20260510063317 39 320 1.0 4.0 0.00 0.00 0.00 64 1009.0
20260510062811 39 320 1.0 4.0 0.00 0.00 0.00 64 1008.9
20260510062306 39 320 2.0 4.0 0.00 0.00 0.00 63 1008.9
20260510062243 39 320 2.0 4.0 0.00 0.00 0.00 63 1008.9
20260510061252 39 320 2.0 5.0 0.00 0.00 0.00 63 1008.9
20260510060744 39 320 2.0 5.0 0.00 0.00 0.00 62 1008.9
20260510060241 39 320 3.0 5.0 0.00 0.00 0.00 62 1008.9
20260510055734 39 320 3.0 5.0 0.00 0.00 0.00 62 1008.8
20260510055227 39 320 2.0 4.0 0.00 0.00 0.00 62 1008.8
20260510054720 39 320 2.0 4.0 0.00 0.00 0.00 61 1008.8
20260510054217 39 320 2.0 5.0 0.00 0.00 0.00 61 1008.6
20260510053710 39 320 2.0 5.0 0.00 0.00 0.00 61 1008.6
20260510053432 39 320 3.0 5.0 0.00 0.00 0.00 61 1008.6
20260510052658 39 320 3.0 5.0 0.00 0.00 0.00 61 1008.6
20260510052150 38 320 3.0 5.0 0.00 0.00 0.00 62 1008.6
20260510051644 38 320 2.0 5.0 0.00 0.00 0.00 62 1008.6
20260510051627 38 320 1.0 5.0 0.00 0.00 0.00 63 1008.5
20260510050854 38 320 2.0 5.0 0.00 0.00 0.00 63 1008.5
20260510050122 37 320 2.0 5.0 0.00 0.00 0.00 63 1008.5
20260510045623 37 315 0.0 4.0 0.00 0.00 0.00 63 1008.4
20260510045115 38 315 0.0 4.0 0.00 0.00 0.00 63 1008.4
20260510044604 38 315 1.0 4.0 0.00 0.00 0.00 62 1008.4
20260510044058 38 315 2.0 4.0 0.00 0.00 0.00 61 1008.3
20260510043552 38 315 1.0 3.0 0.00 0.00 0.00 60 1008.3
20260510043047 38 315 1.0 4.0 0.00 0.00 0.00 59 1008.3
20260510042541 38 315 1.0 4.0 0.00 0.00 0.00 60 1008.3
20260510042259 39 315 1.0 4.0 0.00 0.00 0.00 59 1008.3
20260510041530 39 315 1.0 4.0 0.00 0.00 0.00 59 1008.3
20260510041024 39 315 2.0 4.0 0.00 0.00 0.00 58 1008.2
20260510040517 39 315 2.0 4.0 0.00 0.00 0.00 58 1008.2
20260510040010 39 315 2.0 6.0 0.00 0.00 0.00 57 1008.2
20260510035728 39 315 3.0 6.0 0.00 0.00 0.00 57 1008.0
20260510034958 39 315 3.0 6.0 0.00 0.00 0.00 57 1008.0
20260510034453 39 315 2.0 6.0 0.00 0.00 0.00 58 1008.0
20260510033946 39 315 2.0 4.0 0.00 0.00 0.00 58 1008.0
20260510033442 39 315 2.0 3.0 0.00 0.00 0.00 58 1008.0
20260510032939 39 315 2.0 5.0 0.00 0.00 0.00 59 1008.0
20260510032435 39 315 2.0 5.0 0.00 0.00 0.00 58 1008.0
20260510031927 40 315 3.0 5.0 0.00 0.00 0.00 56 1008.0
20260510031422 40 315 3.0 5.0 0.00 0.00 0.00 55 1007.9
20260510031139 40 315 3.0 5.0 0.00 0.00 0.00 54 1007.9
20260510030411 40 315 3.0 4.0 0.00 0.00 0.00 53 1007.9
20260510025859 41 315 3.0 6.0 0.00 0.00 0.00 53 1007.7
20260510025354 41 315 3.0 6.0 0.00 0.00 0.00 52 1007.7
20260510025110 41 315 3.0 6.0 0.00 0.00 0.00 51 1007.7
20260510024606 41 315 3.0 6.0 0.00 0.00 0.00 51 1007.5
20260510023835 41 316 4.0 6.0 0.00 0.00 0.00 51 1007.5
20260510023330 41 316 4.0 6.0 0.00 0.00 0.00 51 1007.5
20260510022824 41 316 3.0 7.0 0.00 0.00 0.00 51 1007.5
20260510022538 41 316 1.0 7.0 0.00 0.00 0.00 51 1007.5
20260510021816 41 317 0.0 0.0 0.00 0.00 0.00 51 1007.5
20260510021314 42 317 0.0 0.0 0.00 0.00 0.00 51 1007.2
20260510020813 42 317 0.0 0.0 0.00 0.00 0.00 50 1007.2
20260510020311 42 317 0.0 0.0 0.00 0.00 0.00 49 1007.2
20260510015810 42 317 0.0 5.0 0.00 0.00 0.00 49 1006.9
20260510015307 43 317 1.0 5.0 0.00 0.00 0.00 47 1006.9
20260510014805 43 317 2.0 5.0 0.00 0.00 0.00 47 1006.9
20260510014305 43 317 3.0 7.0 0.00 0.00 0.00 46 1006.5
20260510013805 44 317 4.0 7.0 0.00 0.00 0.00 45 1006.5
20260510013302 44 317 4.0 12.0 0.00 0.00 0.00 45 1006.5
20260510013019 44 317 5.0 12.0 0.00 0.00 0.00 45 1006.5
20260510012258 44 320 6.0 12.0 0.00 0.00 0.00 44 1006.5
20260510011800 45 306 6.0 12.0 0.00 0.00 0.00 44 1006.5
20260510011744 45 310 5.0 10.0 0.00 0.00 0.00 44 1006.3
20260510010758 45 312 6.0 10.0 0.00 0.00 0.00 44 1006.3
20260510010300 45 312 6.0 10.0 0.00 0.00 0.00 44 1006.3
20260510005759 45 306 6.0 10.0 0.00 0.00 0.00 44 1006.1
20260510005300 46 317 5.0 10.0 0.00 0.00 0.00 43 1006.1
20260510005026 46 314 6.0 10.0 0.00 0.00 0.00 42 1006.1
20260510004257 46 308 6.0 10.0 0.00 0.00 0.00 42 1006.0
20260510003748 46 318 5.0 12.0 0.00 0.00 0.00 42 1006.0
20260510003448 47 304 7.0 12.0 0.00 0.00 0.00 40 1005.8
20260510003334 47 308 6.0 12.0 0.00 0.00 0.00 41 1006.0
20260510002247 47 312 5.0 12.0 0.00 0.00 0.00 40 1005.8
20260510001746 47 320 5.0 11.0 0.00 0.00 0.00 41 1005.8
20260510001249 48 318 5.0 13.0 0.00 0.00 0.00 40 1005.6
20260510000747 48 326 6.0 13.0 0.00 0.00 0.00 39 1005.6
20260510000248 47 340 5.0 13.0 0.00 0.00 0.00 40 1005.6
20260509235746 47 326 5.0 13.0 0.00 0.00 0.00 40 1005.4
20260509235246 47 338 6.0 12.0 0.00 0.00 0.00 39 1005.4
20260509234747 47 319 6.0 14.0 0.00 0.00 0.00 40 1005.4
20260509234246 47 314 6.0 14.0 0.00 0.00 0.00 41 1005.3
20260509233746 47 316 7.0 14.0 0.00 0.00 0.00 41 1005.3
20260509233244 47 334 7.0 14.0 0.00 0.00 0.00 39 1005.3
20260509232744 47 339 5.0 10.0 0.00 0.00 0.00 38 1005.2
20260509232244 47 1 4.0 10.0 0.00 0.00 0.00 41 1005.2
20260509231744 47 30 5.0 10.0 0.00 0.00 0.00 39 1005.2
20260509231245 48 306 5.0 10.0 0.00 0.00 0.00 39 1004.9
20260509230738 48 314 5.0 10.0 0.00 0.00 0.00 39 1004.9
20260509230232 48 4 5.0 10.0 0.00 0.00 0.00 38 1004.9
20260509225947 48 19 5.0 10.0 0.00 0.00 0.00 38 1004.8
20260509225221 48 324 4.0 9.0 0.00 0.00 0.00 39 1004.8
20260509224714 48 339 5.0 11.0 0.00 0.00 0.00 38 1004.8
20260509224209 48 323 5.0 11.0 0.00 0.00 0.00 37 1004.8
20260509223703 48 316 5.0 11.0 0.00 0.00 0.00 39 1004.8
20260509223419 48 304 4.0 11.0 0.00 0.00 0.00 40 1004.8
20260509222651 48 315 3.0 9.0 0.00 0.00 0.00 38 1004.7
20260509222403 47 320 3.0 8.0 0.00 0.00 0.00 39 1004.7
20260509222248 48 316 3.0 7.0 0.00 0.00 0.00 39 1004.7
20260509221133 47 321 2.0 8.0 0.00 0.00 0.00 40 1004.7
20260509220626 47 320 2.0 8.0 0.00 0.00 0.00 41 1004.7
20260509220122 47 318 1.0 8.0 0.00 0.00 0.00 40 1004.7
20260509215615 47 336 1.0 7.0 0.00 0.00 0.00 41 1004.6
20260509215110 47 336 2.0 7.0 0.00 0.00 0.00 40 1004.6
20260509214604 47 336 4.0 8.0 0.00 0.00 0.00 39 1004.6
20260509214057 47 339 4.0 9.0 0.00 0.00 0.00 41 1004.6
20260509213551 47 314 3.0 9.0 0.00 0.00 0.00 39 1004.6
20260509213046 47 313 4.0 10.0 0.00 0.00 0.00 41 1004.6
20260509212540 46 318 5.0 10.0 0.00 0.00 0.00 41 1004.4
20260509212034 46 8 5.0 10.0 0.00 0.00 0.00 42 1004.4
20260509211528 47 347 6.0 10.0 0.00 0.00 0.00 40 1004.4
20260509211022 47 308 5.0 10.0 0.00 0.00 0.00 40 1004.2
20260509210956 47 339 5.0 16.0 0.00 0.00 0.00 41 1004.2
20260509210010 47 320 6.0 16.0 0.00 0.00 0.00 42 1004.2
20260509205504 46 328 7.0 16.0 0.00 0.00 0.00 42 1004.2
20260509204958 46 309 7.0 16.0 0.00 0.00 0.00 38 1004.2
20260509204452 46 310 6.0 14.0 0.00 0.00 0.00 41 1004.1
20260509203946 47 326 7.0 14.0 0.00 0.00 0.00 41 1004.1
20260509203440 47 312 7.0 14.0 0.00 0.00 0.00 40 1004.1
20260509203208 47 337 6.0 14.0 0.00 0.00 0.00 39 1004.0
20260509202428 47 345 7.0 14.0 0.00 0.00 0.00 40 1004.0
20260509201923 47 310 8.0 21.0 0.00 0.00 0.00 41 1004.0
20260509201416 47 312 8.0 21.0 0.00 0.00 0.00 39 1003.6
20260509200910 47 339 9.0 21.0 0.00 0.00 0.00 39 1003.6
20260509200404 48 305 9.0 21.0 0.00 0.00 0.00 37 1003.6
20260509195859 48 356 7.0 18.0 0.00 0.00 0.00 39 1003.6
20260509195353 48 7 6.0 16.0 0.00 0.00 0.00 38 1003.6
20260509194846 47 325 8.0 16.0 0.00 0.00 0.00 42 1003.6
20260509194340 47 338 9.0 16.0 0.00 0.00 0.00 39 1003.4
20260509193834 47 324 8.0 15.0 0.00 0.00 0.00 39 1003.4
20260509193328 47 321 8.0 19.0 0.00 0.00 0.00 42 1003.4
20260509192822 47 323 10.0 19.0 0.00 0.00 0.00 39 1003.1
20260509192316 48 328 10.0 19.0 0.00 0.00 0.00 39 1003.1
20260509191812 48 320 11.0 19.0 0.00 0.00 0.00 41 1003.1
20260509191305 47 337 10.0 17.0 0.00 0.00 0.00 40 1003.1
20260509190758 47 308 9.0 20.0 0.00 0.00 0.00 40 1003.1
20260509190252 47 292 10.0 20.0 0.00 0.00 0.00 41 1003.1
20260509185746 46 346 11.0 20.0 0.00 0.00 0.00 41 1003.1
20260509185240 46 315 12.0 27.0 0.00 0.00 0.00 41 1003.1
20260509184735 46 326 11.0 27.0 0.00 0.00 0.00 41 1003.1
20260509184230 46 306 12.0 27.0 0.00 0.00 0.00 40 1002.7
20260509183944 47 297 12.0 27.0 0.00 0.00 0.00 42 1002.7
20260509183220 47 337 11.0 24.0 0.00 0.00 0.00 41 1002.7
20260509182710 47 333 11.0 21.0 0.00 0.00 0.00 43 1002.6
20260509182205 47 280 11.0 21.0 0.00 0.00 0.00 44 1002.6
20260509181658 47 68 11.0 19.0 0.00 0.00 0.00 42 1002.6
20260509181153 48 297 12.0 26.0 0.00 0.00 0.00 41 1002.1
20260509180646 48 0 11.0 26.0 0.00 0.00 0.00 39 1002.1
20260509180359 48 339 12.0 25.0 0.00 0.00 0.00 41 1002.1
20260509175634 47 319 15.0 25.0 0.00 0.00 0.00 42 1002.0
20260509175128 47 329 14.0 25.0 0.00 0.00 0.00 42 1002.0
20260509174622 47 307 14.0 23.0 0.00 0.00 0.00 41 1002.0
20260509174116 48 310 13.0 23.0 0.00 0.00 0.00 41 1001.6
20260509173610 49 358 10.0 21.0 0.00 0.00 0.00 38 1001.6
20260509173104 49 289 12.0 22.0 0.00 0.00 0.00 39 1001.6
20260509172558 49 231 11.0 22.0 0.00 0.00 0.00 41 1001.4
20260509172055 48 291 11.0 22.0 0.00 0.00 0.00 41 1001.4
20260509171556 48 301 11.0 24.0 0.00 0.00 0.00 38 1001.4
20260509171057 48 285 11.0 24.0 0.00 0.00 0.00 41 1000.9
20260509170556 48 301 13.0 24.0 0.00 0.00 0.00 40 1000.9
20260509170323 48 318 13.0 24.0 0.00 0.00 0.00 40 1000.9
20260509165821 49 329 10.0 24.0 0.00 0.00 0.00 39 1000.8
20260509165056 49 298 11.0 24.0 0.00 0.00 0.00 43 1000.8
20260509164555 48 294 11.0 24.0 0.00 0.00 0.00 40 1000.8
20260509164056 48 310 11.0 24.0 0.00 0.00 0.00 39 1000.7
20260509163557 48 317 12.0 22.0 0.00 0.00 0.00 42 1000.7
20260509163055 49 310 10.0 19.0 0.00 0.00 0.00 42 1000.7
20260509162556 48 294 11.0 21.0 0.00 0.00 0.00 44 1000.4
20260509162056 48 320 12.0 21.0 0.00 0.00 0.00 45 1000.4
20260509161557 48 317 12.0 26.0 0.00 0.00 0.00 44 1000.4
20260509161321 47 314 13.0 26.0 0.00 0.00 0.00 45 1000.1
20260509160541 47 310 13.0 26.0 0.00 0.00 0.00 44 1000.1
20260509160029 47 326 12.0 26.0 0.00 0.00 0.00 43 1000.1
20260509155735 48 329 11.0 26.0 0.00 0.00 0.00 43 999.9
20260509155452 48 314 11.0 26.0 0.00 0.00 0.00 43 999.9
20260509154452 48 280 11.0 25.0 0.00 0.00 0.00 45 999.6
20260509153940 47 341 11.0 25.0 0.00 0.00 0.00 45 999.6
20260509153429 47 337 12.0 26.0 0.00 0.00 0.00 44 999.6
20260509152916 47 262 13.0 26.0 0.00 0.00 0.00 44 999.4
20260509152404 48 306 10.0 22.0 0.00 0.00 0.00 43 999.4
20260509151852 47 310 9.0 25.0 0.00 0.00 0.00 43 999.4
20260509151340 47 319 11.0 25.0 0.00 0.00 0.00 44 999.1
20260509150828 47 310 12.0 26.0 0.00 0.00 0.00 44 999.1
20260509150316 47 308 11.0 26.0 0.00 0.00 0.00 41 999.1
20260509145804 46 318 11.0 26.0 0.00 0.00 0.00 42 998.9
20260509145251 46 285 13.0 26.0 0.00 0.00 0.00 44 998.9
20260509144745 46 285 15.0 26.0 0.00 0.00 0.00 42 998.9
20260509144238 46 307 13.0 24.0 0.00 0.00 0.00 42 998.8
20260509143733 46 338 12.0 24.0 0.00 0.00 0.00 41 998.8
20260509143227 46 297 13.0 24.0 0.00 0.00 0.00 42 998.8
20260509142720 46 307 12.0 24.0 0.00 0.00 0.00 42 998.8
20260509142215 47 293 9.0 23.0 0.00 0.00 0.00 40 998.8
20260509141708 46 302 9.0 25.0 0.00 0.00 0.00 42 998.8
20260509141158 46 306 10.0 25.0 0.00 0.00 0.00 41 998.4
20260509140657 46 328 11.0 25.0 0.00 0.00 0.00 42 998.4
20260509140151 46 308 10.0 25.0 0.00 0.00 0.00 40 998.4
20260509135645 46 285 8.0 17.0 0.00 0.00 0.00 41 998.2
20260509135138 46 308 7.0 15.0 0.00 0.00 0.00 43 998.2
20260509134632 45 333 7.0 15.0 0.00 0.00 0.00 42 998.2
20260509134350 45 285 8.0 15.0 0.00 0.00 0.00 43 997.8
20260509133620 44 304 9.0 15.0 0.00 0.00 0.00 43 997.8
20260509133114 44 305 9.0 16.0 0.00 0.00 0.00 45 997.8
20260509132609 43 319 9.0 16.0 0.00 0.00 0.00 44 997.7
20260509132318 43 312 9.0 16.0 0.00 0.00 0.00 44 997.7
20260509131556 43 313 8.0 16.0 0.00 0.00 0.00 44 997.7
20260509131050 43 309 7.0 14.0 0.00 0.00 0.00 44 997.7
20260509130544 43 297 7.0 13.0 0.00 0.00 0.00 43 997.7
20260509130040 43 306 8.0 13.0 0.00 0.00 0.00 43 997.7
20260509125757 43 307 8.0 17.0 0.00 0.00 0.00 42 997.6
20260509125026 43 306 8.0 17.0 0.00 0.00 0.00 42 997.6
20260509124521 44 308 7.0 17.0 0.00 0.00 0.00 43 997.6
20260509124014 43 289 7.0 17.0 0.00 0.00 0.00 41 997.3
20260509123509 43 332 8.0 16.0 0.00 0.00 0.00 41 997.3
20260509122958 43 317 7.0 14.0 0.00 0.00 0.00 41 997.3
20260509122456 43 312 7.0 14.0 0.00 0.00 0.00 41 997.3
20260509121950 43 305 7.0 12.0 0.00 0.00 0.00 42 997.3
20260509121158 43 316 6.0 12.0 0.00 0.00 0.00 42 997.2
20260509120432 43 312 6.0 11.0 0.00 0.00 0.00 44 997.2